Racecast

Amplus Academy

Difficulty:i -2.8% (3000m, the usual distance here) · 104 results · 92 athletes

All 3000m

Distances raced here

DistanceDifficultyiResults FirstLast
3000m -2.8% 104 2021-03-20 2021-04-03

Best speed ratings all distances

Boys

#AthleteRatingi TimeDistSchoolDate
1 Andrew Specht 121.4 9:32.6 3000m Bishop Gorman (NV) 2021-03-20
2 Tyler Pfefferkorn 120.0 9:39.4 3000m Faith Lutheran (NV) 2021-03-20
3 Aaron Roy 119.7 9:40.7 3000m Coral Academy of Science (Sandy Ridge) (NV) 2021-03-20
4 Devin Varlack 118.1 9:48.9 3000m Pahrump Valley (NV) 2021-03-20
5 Tobi Alabi 117.0 9:56.5 3000m Faith Lutheran (NV) 2021-04-03
6 Sergiy Montano 116.3 9:57.6 3000m Bishop Gorman (NV) 2021-03-20
7 Khiry Anderson 116.2 9:58.1 3000m Bishop Gorman (NV) 2021-03-20
8 Giovanni Moya 115.7 10:01.1 3000m Bishop Gorman (NV) 2021-03-20
9 Anthony Nisley 115.5 10:01.7 3000m Bishop Gorman (NV) 2021-03-20
10 Brayden Mendoza 112.4 10:20.8 3000m Coral Academy of Science (Sandy Ridge) (NV) 2021-04-03
11 Tanner Thunnell 111.8 10:24.2 3000m Amplus Academy HS (NV) 2021-04-03
12 Alejandro Mozqueda 111.0 10:28.9 3000m Coral Academy of Science (Sandy Ridge) (NV) 2021-04-03
13 Alexander Ibarra 110.8 10:29.7 3000m Coral Academy of Science (Sandy Ridge) (NV) 2021-04-03
14 Dylan Dang 110.2 10:30.6 3000m Coral Academy of Science (Sandy Ridge) (NV) 2021-03-20
15 Tyler Otto 109.4 10:35.3 3000m Faith Lutheran (NV) 2021-03-20
16 Donovan Coulthard 109.0 10:37.7 3000m Bishop Gorman (NV) 2021-03-20
17 Joseph Naylor 108.9 10:38.5 3000m The Meadows (NV) 2021-03-20
18 Ulises Sotelo 108.7 10:39.4 3000m Pahrump Valley (NV) 2021-03-20
19 Abel Kidane 108.6 10:40.3 3000m Faith Lutheran (NV) 2021-03-20
20 Nathaniel Roundy 106.3 10:53.8 3000m Pahrump Valley (NV) 2021-03-20
21 Jamie Lin 105.9 10:56.7 3000m Coral Academy of Science (Sandy Ridge) (NV) 2021-03-20
22 Jack Kim 105.6 10:58.3 3000m Adelson (NV) 2021-03-20
23 Will Duhe 104.9 11:02.9 3000m Bishop Gorman (NV) 2021-03-20
24 Samuel Machovsky 100.7 11:30.5 3000m Pahrump Valley (NV) 2021-03-20
25 Jackson Floyd 100.6 11:30.8 3000m Pahrump Valley (NV) 2021-03-20
26 Eli Bey 99.9 11:36 3000m Bishop Gorman (NV) 2021-03-20
27 Chase Nunn 99.7 11:39.8 3000m Amplus Academy HS (NV) 2021-04-03
28 Jackson Taylor 99.2 11:40.7 3000m Bishop Gorman (NV) 2021-03-20
29 Jose Rios 99.0 11:42 3000m Bishop Gorman (NV) 2021-03-20
30 Daniel Montano 97.4 11:53.5 3000m Bishop Gorman (NV) 2021-03-20
31 Bradock Sharp 97.1 11:55.8 3000m Bishop Gorman (NV) 2021-03-20
32 Thomas Ribble 96.8 12:00.8 3000m Amplus Academy HS (NV) 2021-04-03
33 Vito DiArchangel 96.3 12:04.4 3000m Coral Academy of Science (Sandy Ridge) (NV) 2021-04-03
34 Jared Wood 95.5 12:07.7 3000m Bishop Gorman (NV) 2021-03-20
35 Conrad Becker 95.5 12:08.2 3000m Bishop Gorman (NV) 2021-03-20
36 Jacob Gray 94.5 12:15.4 3000m Pahrump Valley (NV) 2021-03-20
37 Louis Sposato 93.0 12:27.2 3000m Pahrump Valley (NV) 2021-03-20
38 Cooper Glover 91.3 12:41.7 3000m Amplus Academy HS (NV) 2021-03-20
39 Corey Register-Black 90.8 12:48.7 3000m Pinecrest Academy Cadence (NV) 2021-04-03
40 Sean Gray 90.6 12:47 3000m Pahrump Valley (NV) 2021-03-20
41 Mateo Sciscento 90.2 12:50.7 3000m Coral Academy of Science (Sandy Ridge) (NV) 2021-03-20
42 Jacob Tyler 89.6 12:55.8 3000m Faith Lutheran (NV) 2021-03-20
43 Jaryn Sosa 88.2 13:07.9 3000m Bishop Gorman (NV) 2021-03-20
44 Patrick Kodweis 88.2 13:08.1 3000m The Meadows (NV) 2021-03-20
45 Collin Leivas 87.7 13:12.9 3000m Needles (NV) 2021-03-20
46 Andrew Lundin 86.4 13:27.7 3000m Slam Nevada (NV) 2021-04-03
47 Aniello Riccio 84.4 13:46.4 3000m Green Valley Christian (NV) 2021-04-03
48 Scott Gruel 82.1 14:10.3 3000m Green Valley Christian (NV) 2021-04-03
49 Theron Abbiss 81.7 14:10.9 3000m Pahrump Valley (NV) 2021-03-20
50 Evan Keffer 81.6 14:11.8 3000m Bishop Gorman (NV) 2021-03-20
51 Jesus Ledesma 80.6 14:26.2 3000m Slam Nevada (NV) 2021-04-03
52 Marcos Rivera 76.3 15:11.3 3000m Pahrump Valley (NV) 2021-03-20
53 Carsen Lee 75.5 15:23.8 3000m Pinecrest Academy Cadence (NV) 2021-04-03
54 Elijah Biggs 59.1 19:36.8 3000m Pahrump Valley (NV) 2021-03-20

View all →

Girls

#AthleteRatingi TimeDistSchoolDate
1 Sophia Kellogg 127.5 10:58 3000m Bishop Gorman (NV) 2021-03-20
2 Roma Velazquez 113.2 12:21.4 3000m Bishop Gorman (NV) 2021-03-20
3 Heidi Blank 111.8 12:30.8 3000m Faith Lutheran (NV) 2021-03-20
4 Rosina Gillett 109.7 12:45.3 3000m Bishop Gorman (NV) 2021-03-20
5 Alison Stepanek 109.3 12:47.8 3000m Faith Lutheran (NV) 2021-03-20
6 Izabella Villanos 108.7 12:52.4 3000m Bishop Gorman (NV) 2021-03-20
7 Sidney Bihrer 107.5 13:01 3000m Faith Lutheran (NV) 2021-03-20
8 Kaelyn Cheney 106.4 13:08.6 3000m Faith Lutheran (NV) 2021-03-20
9 Makani Araujo 105.4 13:16 3000m Pahrump Valley (NV) 2021-03-20
10 Kaydance Hagerstrand 104.7 13:21.8 3000m Pahrump Valley (NV) 2021-03-20
11 Azana Smith 104.3 13:27.8 3000m Slam Nevada (NV) 2021-04-03
12 Katherine Crowder 104.2 13:25.5 3000m Faith Lutheran (NV) 2021-03-20
13 Lily Taylor 103.8 13:28.8 3000m Faith Lutheran (NV) 2021-03-20
14 Emery Anderson 101.4 13:47.5 3000m Amplus Academy HS (NV) 2021-03-20
15 Grace Mccullough 100.9 13:51.6 3000m Bishop Gorman (NV) 2021-03-20
16 Tabitha Sabal 100.7 13:53.1 3000m Bishop Gorman (NV) 2021-03-20
17 Bryce Bateman 99.3 14:08.1 3000m Slam Nevada (NV) 2021-04-03
18 Reagan Flaherty 99.2 14:06.1 3000m Bishop Gorman (NV) 2021-03-20
19 Carissa Collier 99.2 14:06.2 3000m Needles (NV) 2021-03-20
20 Gloriana Collier 99.0 14:07.6 3000m Needles (NV) 2021-03-20
21 Te' Limon 96.5 14:29.5 3000m Needles (NV) 2021-03-20
22 Kaelin Gowdy 95.7 14:37.4 3000m Adelson (NV) 2021-03-20
23 Regan Miller 94.8 14:45.2 3000m Bishop Gorman (NV) 2021-03-20
24 Lillian Kemble 94.8 14:48.9 3000m Pinecrest Academy Cadence (NV) 2021-04-03
25 Stephanie Frias-Esparza 86.1 16:15 3000m Pahrump Valley (NV) 2021-03-20
26 Lynsey Federico 84.7 16:30.5 3000m Needles (NV) 2021-03-20
27 Giovanna Giante 83.4 16:46 3000m Faith Lutheran (NV) 2021-03-20
28 Tia Jones 71.3 19:37.8 3000m Pahrump Valley (NV) 2021-03-20

View all →

Best team performances by rating top-5 average rating, one race, all distances

Boys

#SchoolTop-5 avg DistMeetDate
1 Bishop Gorman (NV) 117.0 3000m Amplus Academy Meet 2021-03-20
2 Coral Academy of Science (Sandy Ridge) (NV) 111.6 3000m Amplus Academy Meet #2 2021-04-03
3 Faith Lutheran (NV) 108.6 3000m Amplus Academy Meet 2021-03-20
4 Pahrump Valley (NV) 106.9 3000m Amplus Academy Meet 2021-03-20

View all →

Girls

#SchoolTop-5 avg DistMeetDate
1 Bishop Gorman (NV) 112.0 3000m Amplus Academy Meet 2021-03-20
2 Faith Lutheran (NV) 107.8 3000m Amplus Academy Meet 2021-03-20

View all →

Meets held here all distances

MeetLast heldDistanceResults
Amplus Academy Meet #2 2021-04-03 3000 22
Amplus Academy Meet 2021-03-20 3000 82

View all →